| time (UTC) | temp C | wind direction | speed KPH | gust KPH | rain 1hr cm | rain 24hr cm | rain mn cm | humidity % | barometer mb |
| 20260505121538 | 17 | 37 | 0.0 | 0.0 | 0.00 | 0.00 | 0.00 | 92 | 1007.0 |
| 20260505121506 | 17 | 67 | 0.0 | 0.0 | 0.00 | 0.00 | 0.00 | 91 | 1007.0 |
| 20260505120033 | 17 | 37 | 0.0 | 0.0 | 0.00 | 0.00 | 0.00 | 90 | 1007.0 |
| 20260505120004 | 17 | 67 | 0.0 | 0.0 | 0.00 | 0.00 | 0.00 | 90 | 1006.9 |
| 20260505114533 | 18 | 46 | 0.0 | 1.6 | 0.00 | 0.00 | 0.00 | 89 | 1006.7 |
| 20260505114504 | 18 | 78 | 0.0 | 1.6 | 0.00 | 0.00 | 0.00 | 89 | 1006.5 |
| 20260505113033 | 18 | 60 | 0.0 | 1.6 | 0.00 | 0.00 | 0.00 | 87 | 1006.4 |
| 20260505113004 | 18 | 92 | 0.0 | 1.6 | 0.00 | 0.00 | 0.00 | 87 | 1006.2 |
| 20260505111530 | 18 | 51 | 0.0 | 3.2 | 0.00 | 0.00 | 0.00 | 85 | 1006.3 |
| 20260505111505 | 18 | 81 | 0.0 | 3.2 | 0.00 | 0.00 | 0.00 | 85 | 1006.1 |
| 20260505101531 | 18 | 138 | 0.0 | 1.6 | 0.00 | 0.00 | 0.00 | 82 | 1006.0 |
| 20260505101507 | 18 | 85 | 0.0 | 1.6 | 0.00 | 0.00 | 0.00 | 82 | 1005.8 |
| 20260505100056 | 18 | 89 | 0.0 | 1.6 | 0.00 | 0.00 | 0.00 | 82 | 1006.0 |
| 20260505100008 | 18 | 164 | 0.0 | 1.6 | 0.00 | 0.00 | 0.00 | 81 | 1005.9 |
| 20260505094623 | 19 | 12 | 0.0 | 1.6 | 0.00 | 0.00 | 0.00 | 81 | 1006.3 |
| 20260505094510 | 19 | 43 | 0.0 | 1.6 | 0.00 | 0.00 | 0.00 | 81 | 1006.0 |
| 20260505093058 | 19 | 64 | 0.0 | 4.8 | 0.00 | 0.00 | 0.00 | 80 | 1006.0 |
| 20260505093012 | 19 | 100 | 0.0 | 4.8 | 0.00 | 0.00 | 0.00 | 79 | 1005.7 |
| 20260505091604 | 19 | 55 | 0.0 | 0.0 | 0.00 | 0.00 | 0.00 | 79 | 1006.1 |
| 20260505091508 | 19 | 88 | 0.0 | 0.0 | 0.00 | 0.00 | 0.00 | 79 | 1005.9 |
| 20260505090058 | 19 | 20 | 0.0 | 1.6 | 0.00 | 0.00 | 0.00 | 80 | 1006.0 |
| 20260505090010 | 19 | 81 | 0.0 | 3.2 | 0.00 | 0.00 | 0.00 | 79 | 1005.8 |
| 20260505084555 | 19 | 23 | 0.0 | 1.6 | 0.00 | 0.00 | 0.00 | 79 | 1006.2 |
| 20260505084508 | 19 | 54 | 0.0 | 4.8 | 0.00 | 0.00 | 0.00 | 78 | 1005.9 |
| 20260505083058 | 19 | 129 | 0.0 | 3.2 | 0.00 | 0.00 | 0.00 | 78 | 1006.3 |
| 20260505083012 | 19 | 77 | 0.0 | 3.2 | 0.00 | 0.00 | 0.00 | 77 | 1006.1 |
| 20260505081556 | 19 | 72 | 0.0 | 0.0 | 0.00 | 0.00 | 0.00 | 77 | 1006.8 |
| 20260505081518 | 19 | 102 | 0.0 | 1.6 | 0.00 | 0.00 | 0.00 | 76 | 1006.6 |
| 20260505080050 | 19 | 51 | 0.0 | 1.6 | 0.00 | 0.00 | 0.00 | 76 | 1007.0 |
| 20260505080014 | 19 | 85 | 0.0 | 1.6 | 0.00 | 0.00 | 0.00 | 75 | 1006.8 |
| 20260505074545 | 19 | 56 | 0.0 | 1.6 | 0.00 | 0.00 | 0.00 | 76 | 1007.2 |
| 20260505074513 | 19 | 97 | 0.0 | 1.6 | 0.00 | 0.00 | 0.00 | 75 | 1007.1 |
| 20260505073044 | 19 | 40 | 0.0 | 1.6 | 0.00 | 0.00 | 0.00 | 75 | 1007.1 |
| 20260505073015 | 19 | 69 | 0.0 | 1.6 | 0.00 | 0.00 | 0.00 | 74 | 1007.0 |
| 20260505071547 | 19 | 212 | 0.0 | 3.2 | 0.00 | 0.00 | 0.00 | 73 | 1007.5 |
| 20260505071514 | 19 | 242 | 0.0 | 3.2 | 0.00 | 0.00 | 0.00 | 73 | 1007.2 |
| 20260505070040 | 19 | 100 | 0.0 | 3.2 | 0.00 | 0.00 | 0.00 | 74 | 1007.7 |
| 20260505070015 | 19 | 82 | 0.0 | 3.2 | 0.00 | 0.00 | 0.00 | 74 | 1007.4 |
| 20260505064540 | 19 | 74 | 0.0 | 1.6 | 0.00 | 0.00 | 0.00 | 74 | 1007.6 |
| 20260505064514 | 19 | 119 | 0.0 | 4.8 | 0.00 | 0.00 | 0.00 | 73 | 1007.4 |
| 20260505063034 | 18 | 119 | 0.0 | 3.2 | 0.00 | 0.00 | 0.00 | 74 | 1007.9 |
| 20260505063015 | 18 | 93 | 0.0 | 1.6 | 0.00 | 0.00 | 0.00 | 74 | 1007.7 |
| 20260505061533 | 18 | 36 | 0.0 | 0.0 | 0.00 | 0.00 | 0.00 | 75 | 1007.9 |
| 20260505061515 | 18 | 66 | 0.0 | 0.0 | 0.00 | 0.00 | 0.00 | 75 | 1007.8 |
| 20260505060035 | 18 | 49 | 0.0 | 0.0 | 0.00 | 0.00 | 0.00 | 74 | 1008.1 |
| 20260505060017 | 18 | 78 | 0.0 | 0.0 | 0.00 | 0.00 | 0.00 | 74 | 1007.8 |
| 20260505054535 | 17 | 79 | 0.0 | 0.0 | 0.00 | 0.00 | 0.00 | 74 | 1008.2 |
| 20260505054527 | 17 | 49 | 0.0 | 0.0 | 0.00 | 0.00 | 0.00 | 75 | 1008.5 |
| 20260505053026 | 17 | 49 | 0.0 | 0.0 | 0.00 | 0.00 | 0.00 | 75 | 1008.6 |
| 20260505053016 | 17 | 80 | 0.0 | 0.0 | 0.00 | 0.00 | 0.00 | 75 | 1008.2 |
| 20260505051524 | 17 | 49 | 0.0 | 0.0 | 0.00 | 0.00 | 0.00 | 75 | 1008.6 |
| 20260505051517 | 17 | 79 | 0.0 | 0.0 | 0.00 | 0.00 | 0.00 | 74 | 1008.2 |
| 20260505041521 | 18 | 79 | 0.0 | 0.0 | 0.00 | 0.00 | 0.00 | 71 | 1008.6 |
| 20260505041519 | 18 | 49 | 0.0 | 0.0 | 0.00 | 0.00 | 0.00 | 71 | 1009.0 |
| 20260505040022 | 18 | 49 | 0.0 | 0.0 | 0.00 | 0.00 | 0.00 | 71 | 1009.2 |
| 20260505034527 | 19 | 79 | 0.0 | 0.0 | 0.00 | 0.00 | 0.00 | 69 | 1008.8 |
| 20260505034518 | 19 | 50 | 0.0 | 0.0 | 0.00 | 0.00 | 0.00 | 69 | 1009.1 |
| 20260505033029 | 19 | 50 | 0.0 | 0.0 | 0.00 | 0.00 | 0.00 | 69 | 1009.4 |
| 20260505033020 | 19 | 79 | 0.0 | 0.0 | 0.00 | 0.00 | 0.00 | 68 | 1008.9 |
| 20260505031517 | 19 | 49 | 0.0 | 0.0 | 0.00 | 0.00 | 0.00 | 69 | 1009.4 |
| 20260505030118 | 20 | 49 | 0.0 | 0.0 | 0.00 | 0.00 | 0.00 | 70 | 1009.1 |
| 20260505030037 | 20 | 79 | 0.0 | 0.0 | 0.00 | 0.00 | 0.00 | 69 | 1008.8 |
| 20260505024521 | 20 | 78 | 0.0 | 0.0 | 0.00 | 0.00 | 0.00 | 69 | 1008.7 |
| 20260505024516 | 20 | 49 | 0.0 | 0.0 | 0.00 | 0.00 | 0.00 | 69 | 1009.0 |
| 20260505023020 | 20 | 78 | 0.0 | 0.0 | 0.00 | 0.00 | 0.00 | 69 | 1008.5 |
| 20260505023018 | 20 | 48 | 0.0 | 0.0 | 0.00 | 0.00 | 0.00 | 69 | 1008.7 |
| 20260505021525 | 20 | 79 | 0.0 | 0.0 | 0.00 | 0.00 | 0.00 | 69 | 1008.3 |
| 20260505021516 | 20 | 48 | 0.0 | 0.0 | 0.00 | 0.00 | 0.00 | 69 | 1008.7 |
| 20260505020021 | 20 | 79 | 0.0 | 0.0 | 0.00 | 0.00 | 0.00 | 68 | 1008.1 |
| 20260505020018 | 20 | 48 | 0.0 | 0.0 | 0.00 | 0.00 | 0.00 | 68 | 1008.3 |
| 20260505014524 | 20 | 48 | 0.0 | 0.0 | 0.00 | 0.00 | 0.00 | 67 | 1008.2 |
| 20260505013020 | 21 | 78 | 0.0 | 0.0 | 0.00 | 0.00 | 0.00 | 65 | 1007.9 |
| 20260505013013 | 21 | 48 | 0.0 | 0.0 | 0.00 | 0.00 | 0.00 | 66 | 1008.2 |
| 20260505011512 | 21 | 48 | 0.0 | 0.0 | 0.00 | 0.00 | 0.00 | 64 | 1007.8 |
| 20260505010012 | 22 | 78 | 0.0 | 0.0 | 0.00 | 0.00 | 0.00 | 62 | 1007.6 |
| 20260505004515 | 22 | 48 | 0.0 | 0.0 | 0.00 | 0.00 | 0.00 | 61 | 1008.0 |
| 20260505003026 | 23 | 79 | 0.0 | 0.0 | 0.00 | 0.00 | 0.00 | 57 | 1007.7 |
| 20260505003007 | 23 | 49 | 0.0 | 0.0 | 0.00 | 0.00 | 0.00 | 58 | 1007.9 |
| 20260505001525 | 23 | 48 | 0.0 | 0.0 | 0.00 | 0.00 | 0.00 | 57 | 1007.9 |
| 20260505001522 | 23 | 78 | 0.0 | 0.0 | 0.00 | 0.00 | 0.00 | 56 | 1007.8 |
| 20260505000022 | 23 | 81 | 0.0 | 1.6 | 0.00 | 0.00 | 0.00 | 56 | 1007.9 |
| 20260505000019 | 23 | 51 | 0.0 | 1.6 | 0.00 | 0.00 | 0.00 | 56 | 1008.1 |
| 20260504234602 | 24 | 33 | 0.0 | 1.6 | 0.00 | 0.00 | 0.00 | 56 | 1008.2 |
| 20260504234520 | 24 | 62 | 0.0 | 1.6 | 0.00 | 0.00 | 0.00 | 55 | 1008.0 |
| 20260504233105 | 24 | 29 | 0.0 | 1.6 | 0.00 | 0.00 | 0.00 | 55 | 1008.3 |
| 20260504233020 | 24 | 59 | 0.0 | 1.6 | 0.00 | 0.00 | 0.00 | 54 | 1008.0 |
| 20260504231601 | 24 | 14 | 0.0 | 1.6 | 0.00 | 0.00 | 0.00 | 53 | 1008.4 |
| 20260504231507 | 24 | 97 | 0.0 | 1.6 | 0.00 | 0.00 | 0.00 | 52 | 1008.2 |
| 20260504230111 | 25 | 180 | 0.0 | 1.6 | 0.00 | 0.00 | 0.00 | 54 | 1008.6 |
| 20260504230025 | 25 | 76 | 0.0 | 0.0 | 0.00 | 0.00 | 0.00 | 52 | 1008.5 |
| 20260504224546 | 25 | 51 | 0.0 | 1.6 | 0.00 | 0.00 | 0.00 | 53 | 1008.8 |
| 20260504224529 | 25 | 76 | 0.0 | 1.6 | 0.00 | 0.00 | 0.00 | 51 | 1008.6 |
| 20260504223039 | 25 | 47 | 0.0 | 6.4 | 0.00 | 0.00 | 0.00 | 51 | 1008.8 |
| 20260504223022 | 25 | 76 | 0.0 | 6.4 | 0.00 | 0.00 | 0.00 | 52 | 1008.8 |
| 20260504221539 | 25 | 48 | 0.0 | 4.8 | 0.00 | 0.00 | 0.00 | 52 | 1008.9 |
| 20260504221517 | 25 | 117 | 0.0 | 4.8 | 0.00 | 0.00 | 0.00 | 51 | 1008.8 |
| 20260504220037 | 25 | 60 | 0.0 | 4.8 | 0.00 | 0.00 | 0.00 | 50 | 1009.2 |
| 20260504220016 | 25 | 95 | 0.0 | 4.8 | 0.00 | 0.00 | 0.00 | 50 | 1009.0 |
| 20260504214535 | 25 | 358 | 0.0 | 3.2 | 0.00 | 0.00 | 0.00 | 50 | 1009.2 |
| 20260504214510 | 25 | 40 | 0.0 | 1.6 | 0.00 | 0.00 | 0.00 | 49 | 1009.3 |
| 20260504213036 | 25 | 31 | 0.0 | 4.8 | 0.00 | 0.00 | 0.00 | 50 | 1009.5 |
| 20260504213033 | 25 | 123 | 0.0 | 4.8 | 0.00 | 0.00 | 0.00 | 52 | 1009.4 |
| 20260504211534 | 26 | 32 | 0.0 | 9.7 | 0.00 | 0.00 | 0.00 | 49 | 1009.5 |
| 20260504211532 | 26 | 67 | 0.0 | 9.7 | 0.00 | 0.00 | 0.00 | 49 | 1009.5 |
| 20260504210036 | 26 | 29 | 0.0 | 4.8 | 0.00 | 0.00 | 0.00 | 47 | 1010.0 |
| 20260504210022 | 26 | 305 | 0.0 | 4.8 | 0.00 | 0.00 | 0.00 | 48 | 1009.9 |
| 20260504204532 | 26 | 341 | 0.0 | 6.4 | 0.00 | 0.00 | 0.00 | 49 | 1010.3 |
| 20260504204521 | 26 | 28 | 0.0 | 6.4 | 0.00 | 0.00 | 0.00 | 49 | 1010.1 |
| 20260504203026 | 25 | 357 | 0.0 | 9.7 | 0.00 | 0.00 | 0.00 | 48 | 1010.4 |
| 20260504203021 | 25 | 5 | 0.0 | 9.7 | 0.00 | 0.00 | 0.00 | 47 | 1010.2 |
| 20260504201529 | 25 | 197 | 1.6 | 8.0 | 0.00 | 0.00 | 0.00 | 48 | 1010.5 |
| 20260504201523 | 25 | 167 | 1.6 | 8.0 | 0.00 | 0.00 | 0.00 | 48 | 1010.7 |
| 20260504200028 | 26 | 87 | 0.0 | 3.2 | 0.00 | 0.00 | 0.00 | 45 | 1010.8 |
| 20260504200022 | 26 | 58 | 0.0 | 3.2 | 0.00 | 0.00 | 0.00 | 46 | 1010.9 |
| 20260504194526 | 25 | 136 | 0.0 | 4.8 | 0.00 | 0.00 | 0.00 | 49 | 1011.0 |
| 20260504194521 | 25 | 112 | 0.0 | 4.8 | 0.00 | 0.00 | 0.00 | 48 | 1011.4 |
| 20260504193026 | 25 | 145 | 0.0 | 8.0 | 0.00 | 0.00 | 0.00 | 48 | 1011.2 |
| 20260504193020 | 25 | 57 | 0.0 | 8.0 | 0.00 | 0.00 | 0.00 | 49 | 1011.5 |
| 20260504191525 | 25 | 103 | 1.6 | 8.0 | 0.00 | 0.00 | 0.00 | 49 | 1011.4 |
| 20260504191518 | 25 | 71 | 1.6 | 8.0 | 0.00 | 0.00 | 0.00 | 50 | 1011.7 |
| 20260504190021 | 25 | 48 | 0.0 | 6.4 | 0.00 | 0.00 | 0.00 | 49 | 1011.5 |
| 20260504190014 | 25 | 19 | 0.0 | 6.4 | 0.00 | 0.00 | 0.00 | 50 | 1012.0 |
| 20260504184540 | 25 | 244 | 1.6 | 8.0 | 0.00 | 0.00 | 0.00 | 47 | 1011.7 |
| 20260504184512 | 25 | 213 | 0.0 | 8.0 | 0.00 | 0.00 | 0.00 | 48 | 1012.1 |
| 20260504183026 | 24 | 42 | 0.0 | 4.8 | 0.00 | 0.00 | 0.00 | 51 | 1012.0 |
| 20260504183010 | 24 | 22 | 0.0 | 4.8 | 0.00 | 0.00 | 0.00 | 51 | 1012.3 |
| 20260504181526 | 23 | 340 | 1.6 | 11.3 | 0.00 | 0.00 | 0.00 | 51 | 1012.1 |
| 20260504181507 | 23 | 300 | 1.6 | 11.3 | 0.00 | 0.00 | 0.00 | 51 | 1012.4 |
| 20260504180032 | 23 | 181 | 0.0 | 6.4 | 0.00 | 0.00 | 0.00 | 53 | 1012.3 |
| 20260504180003 | 23 | 162 | 0.0 | 4.8 | 0.00 | 0.00 | 0.00 | 53 | 1012.4 |
| 20260504174600 | 23 | 106 | 0.0 | 11.3 | 0.00 | 0.00 | 0.00 | 52 | 1012.8 |
| 20260504174522 | 23 | 79 | 0.0 | 11.3 | 0.00 | 0.00 | 0.00 | 51 | 1012.4 |
| 20260504173108 | 22 | 19 | 0.0 | 6.4 | 0.00 | 0.00 | 0.00 | 56 | 1012.9 |
| 20260504173023 | 22 | 145 | 0.0 | 6.4 | 0.00 | 0.00 | 0.00 | 55 | 1012.5 |
| 20260504171602 | 22 | 8 | 0.0 | 14.5 | 0.00 | 0.00 | 0.00 | 54 | 1013.2 |
| 20260504171526 | 22 | 74 | 0.0 | 14.5 | 0.00 | 0.00 | 0.00 | 51 | 1012.7 |